Rogers City, MI

7:35 AM EDT on September 23, 2017 (GMT -0400)
Presque Isle County

Weather History for KPZQ - November, 2012

Change the Weather History Date:

Saturday, November 17, 2012

  Actual Average (KAPN) Record (KAPN)
Temperature  
Mean Temperature 34 °F -  
Max Temperature 40 °F 43 °F 72 °F (1953)
Min Temperature 28 °F 28 °F 6 °F (1924)
Degree Days  
Heating Degree Days 31    
Moisture  
Dew Point 31 °F    
Average Humidity 87    
Maximum Humidity 94    
Minimum Humidity 78    
Precipitation  
Precipitation 0.00 in - - ()
Sea Level Pressure  
Sea Level Pressure 30.54 in    
Wind  
Wind Speed 3 mph (South)    
Max Wind Speed 9 mph    
Max Gust Speed -    
Visibility 5 miles    
Events Fog    
Averages and records for this station are not official NWS values.
T = Trace of Precipitation, MM = Missing Value Source: NWS Daily Summary

Daily Weather History Graph

Daily Weather History Graph

Search for Another Location

Airport or City:

Trip Planner

Search our weather history database for the weather conditions in past years. The results will help you decide how hot, cold, wet, or windy it might be!

Date:

Astronomy

Nov. 17, 2012 Rise Set
Actual Time 7:37 AM EST 5:02 PM EST
Civil Twilight 7:05 AM EST 5:35 PM EST
Nautical Twilight 6:29 AM EST 6:11 PM EST
Astronomical Twilight 5:54 AM EST 6:46 PM EST
Moon 11:21 AM EST (11/17) 9:12 PM EST (11/17)
Length of Visible Light 10h 29m
Length of Day
9h 25m
Waxing Crescent, 20% of the Moon is Illuminated
Nov 17
Waxing Crescent
Nov 20
First Quarter
Nov 28
Full
Dec 6
Last Quarter
Dec 13
New

Hourly Weather History & Observations

Time (EST) Temp. Windchill Dew Point Humidity Pressure Visibility Wind Dir Wind Speed Gust Speed Precip Events Conditions
12:14 AM 32.0 °F 27.5 °F 25.7 °F 78% 30.51 in 10.0 mi South 4.6 mph - N/A   Clear
12:35 AM 31.5 °F - 25.5 °F 79% 30.52 in 10.0 mi Calm Calm - N/A   Clear
12:54 AM 31.1 °F 27.7 °F 25.2 °F 79% 30.52 in 10.0 mi SW 3.5 mph - N/A   Clear
1:14 AM 30.6 °F 25.8 °F 25.0 °F 80% 30.52 in 10.0 mi SSW 4.6 mph - N/A   Clear
1:34 AM 29.8 °F 26.3 °F 24.6 °F 81% 30.53 in 10.0 mi SSW 3.5 mph - N/A   Scattered Clouds
1:54 AM 29.8 °F 26.3 °F 24.8 °F 81% 30.53 in 10.0 mi SSW 3.5 mph - N/A   Mostly Cloudy
2:15 AM 28.9 °F - 24.6 °F 84% 30.54 in 10.0 mi Calm Calm - N/A   Overcast
2:34 AM 30.2 °F - 26.4 °F 86% 30.54 in 10.0 mi Calm Calm - N/A   Overcast
2:54 AM 31.5 °F 26.8 °F 27.5 °F 85% 30.54 in 10.0 mi SSE 4.6 mph - N/A   Overcast
3:14 AM 32.4 °F 29.1 °F 27.9 °F 83% 30.53 in 10.0 mi SSE 3.5 mph - N/A   Overcast
3:34 AM 33.3 °F 30.2 °F 28.9 °F 84% 30.53 in 10.0 mi SSE 3.5 mph - N/A   Overcast
3:55 AM 33.8 °F - 29.1 °F 83% 30.53 in 10.0 mi Calm Calm - N/A   Overcast
4:14 AM 33.4 °F - 29.1 °F 84% 30.54 in 10.0 mi Calm Calm - N/A   Overcast
4:34 AM 33.3 °F 28.9 °F 30.0 °F 88% 30.54 in 10.0 mi SSE 4.6 mph - N/A   Overcast
4:55 AM 34.0 °F 31.0 °F 29.8 °F 85% 30.53 in 10.0 mi SSE 3.5 mph - N/A   Overcast
5:14 AM 34.0 °F - 29.3 °F 83% 30.53 in 10.0 mi Calm Calm - N/A   Overcast
5:35 AM 34.0 °F 31.0 °F 29.1 °F 82% 30.53 in 10.0 mi SE 3.5 mph - N/A   Scattered Clouds
5:54 AM 33.1 °F - 28.9 °F 85% 30.54 in 10.0 mi Calm Calm - N/A   Scattered Clouds
6:14 AM 33.4 °F 29.1 °F 29.7 °F 86% 30.54 in 10.0 mi South 4.6 mph - N/A   Scattered Clouds
6:35 AM 33.8 °F 27.7 °F 30.0 °F 86% 30.54 in 10.0 mi South 6.9 mph - N/A   Mostly Cloudy
6:54 AM 34.7 °F 28.1 °F 31.6 °F 89% 30.53 in 5.0 mi South 8.1 mph - N/A   Overcast
7:14 AM 34.7 °F 27.5 °F 31.6 °F 89% 30.54 in 5.0 mi South 9.2 mph - N/A   Overcast
7:35 AM 34.5 °F 27.9 °F 31.6 °F 89% 30.54 in 5.0 mi South 8.1 mph - N/A   Overcast
7:54 AM 34.3 °F 28.4 °F 32.0 °F 91% 30.55 in 1.5 mi South 6.9 mph - N/A   Overcast
8:14 AM 34.3 °F 29.2 °F 32.0 °F 91% 30.55 in 0.8 mi South 5.8 mph - N/A   Overcast
8:34 AM 34.3 °F 28.4 °F 32.0 °F 91% 30.56 in 0.8 mi South 6.9 mph - N/A   Overcast
8:54 AM 34.3 °F 28.4 °F 32.0 °F 91% 30.56 in 0.5 mi South 6.9 mph - N/A Fog Fog
9:15 AM 34.5 °F 28.6 °F 32.2 °F 91% 30.55 in 0.5 mi SSW 6.9 mph - N/A Fog Fog
9:34 AM 34.9 °F 29.0 °F 32.5 °F 91% 30.55 in 0.8 mi South 6.9 mph - N/A   Overcast
9:54 AM 35.1 °F 30.1 °F 32.9 °F 92% 30.56 in 1.0 mi SSW 5.8 mph - N/A   Overcast
10:15 AM 35.2 °F 32.4 °F 32.9 °F 91% 30.56 in 1.0 mi SW 3.5 mph - N/A   Overcast
10:34 AM 35.2 °F 31.2 °F 32.9 °F 91% 30.57 in 0.8 mi SSW 4.6 mph - N/A   Overcast
10:55 AM 35.6 °F 31.7 °F 33.3 °F 91% 30.57 in 1.0 mi SSW 4.6 mph - N/A   Overcast
11:14 AM 36.0 °F 32.1 °F 33.4 °F 91% 30.57 in 1.2 mi SW 4.6 mph - N/A   Overcast
11:34 AM 36.0 °F 33.3 °F 33.4 °F 91% 30.57 in 1.2 mi SSW 3.5 mph - N/A   Overcast
11:55 AM 36.5 °F 31.8 °F 33.8 °F 90% 30.57 in 1.5 mi WSW 5.8 mph - N/A   Overcast
12:14 PM 36.7 °F 34.1 °F 33.6 °F 89% 30.56 in 1.8 mi SSW 3.5 mph - N/A   Overcast
12:34 PM 36.9 °F - 33.8 °F 89% 30.56 in 2.0 mi Calm Calm - N/A   Overcast
12:55 PM 37.9 °F - 34.2 °F 86% 30.55 in 3.0 mi Calm Calm - N/A   Overcast
1:14 PM 37.8 °F - 33.8 °F 86% 30.55 in 3.0 mi Calm Calm - N/A   Overcast
1:34 PM 37.4 °F - 33.4 °F 86% 30.55 in 2.5 mi Calm Calm - N/A   Overcast
1:55 PM 37.8 °F - 34.0 °F 86% 30.55 in 2.5 mi Calm Calm - N/A   Overcast
2:14 PM 38.3 °F - 34.2 °F 85% 30.54 in 3.0 mi Calm Calm - N/A   Overcast
2:35 PM 39.4 °F - 34.7 °F 83% 30.54 in 3.0 mi Calm Calm - N/A   Overcast
2:54 PM 39.4 °F - 34.5 °F 83% 30.54 in 3.0 mi Calm Calm - N/A   Mist
3:14 PM 40.3 °F - 34.9 °F 81% 30.54 in 4.0 mi Calm Calm - N/A   Haze
3:35 PM 40.3 °F - 34.7 °F 80% 30.54 in 4.0 mi Calm Calm - N/A   Haze
3:54 PM 39.2 °F - 34.7 °F 84% 30.53 in 4.0 mi Calm Calm - N/A   Clear
4:14 PM 38.3 °F - 34.2 °F 85% 30.53 in 3.0 mi Calm Calm - N/A   Clear
4:35 PM 38.1 °F - 34.5 °F 87% 30.53 in 2.5 mi Calm Calm - N/A   Clear
4:54 PM 36.9 °F 34.3 °F 33.3 °F 87% 30.53 in 2.0 mi ESE 3.5 mph - N/A   Clear
5:14 PM 35.6 °F - 32.7 °F 89% 30.53 in 2.5 mi Calm Calm - N/A   Clear
5:35 PM 36.5 °F - 33.8 °F 90% 30.54 in 2.5 mi Calm Calm - N/A   Clear
5:54 PM 36.0 °F - 33.4 °F 91% 30.54 in 1.5 mi Calm Calm - N/A   Mist
6:15 PM 33.4 °F - 31.1 °F 91% 30.54 in 0.8 mi Calm Calm - N/A   Mist
6:34 PM 31.3 °F 27.9 °F 28.8 °F 90% 30.54 in 0.8 mi ESE 3.5 mph - N/A   Mist
6:55 PM 32.4 °F - 30.7 °F 94% 30.54 in 1.0 mi Calm Calm - N/A   Mist
7:14 PM 32.0 °F - 29.8 °F 92% 30.53 in 0.8 mi Calm Calm - N/A   Mist
7:34 PM 29.5 °F - 27.1 °F 91% 30.53 in 1.8 mi Calm Calm - N/A   Mist
7:55 PM 28.4 °F 24.6 °F 26.1 °F 91% 30.52 in 2.0 mi SSE 3.5 mph - N/A   Clear
8:14 PM 29.8 °F - 27.3 °F 90% 30.52 in 1.2 mi Calm Calm - N/A   Mist
8:35 PM 29.1 °F - 26.6 °F 90% 30.52 in 2.0 mi Calm Calm - N/A   Clear
8:54 PM 28.2 °F - 25.5 °F 90% 30.52 in 2.5 mi Calm Calm - N/A   Clear
9:14 PM 29.3 °F - 27.1 °F 92% 30.52 in 1.8 mi Calm Calm - N/A   Mist
9:54 PM 28.9 °F - 26.6 °F 91% 30.53 in 2.0 mi Calm Calm - N/A   Clear
10:14 PM 30.0 °F - 27.7 °F 91% 30.52 in 3.0 mi Calm Calm - N/A   Clear
10:34 PM 32.4 °F 29.1 °F 30.6 °F 93% 30.52 in 5.0 mi SSE 3.5 mph - N/A   Clear
10:54 PM 34.7 °F 30.6 °F 31.8 °F 89% 30.52 in 7.0 mi South 4.6 mph - N/A   Clear
11:15 PM 35.6 °F 30.7 °F 31.5 °F 85% 30.52 in 7.0 mi South 5.8 mph - N/A   Clear
11:34 PM 36.7 °F 31.2 °F 31.6 °F 82% 30.53 in 7.0 mi South 6.9 mph - N/A   Clear
11:54 PM 37.0 °F 31.6 °F 31.5 °F 80% 30.53 in 7.0 mi South 6.9 mph - N/A   Clear